Wind_Speed
21 21 21 21 21 21 21 22 22 22 23 23 24 25 26 26 27 28 28 28 29 29 29 29 28 28 28 27 28 28 29 29 30 30 31 31 32 32 33 33 33 34 34 34 34 34 34 34 35 36 36 36 36 36 36 36 36 37 37 38 38 37 35 32 30 29 30 32 32
21 21 21 21 20 21 21 21 22 22 23 24 25 26 27 27 28 29 29 29 29 30 30 30 29 29 28 28 28 28 29 29 30 30 31 31 32 32 33 33 33 34 34 34 34 35 35 36 36 37 37 37 38 38 37 36 36 36 36 36 36 36 36 35 34 32 31 32 33
21 21 21 21 20 20 21 21 22 23 24 25 26 27 27 28 29 29 30 30 30 30 30 30 30 29 29 29 29 28 28 29 29 30 31 31 32 32 32 32 33 33 33 33 34 35 35 36 37 38 39 39 40 40 40 39 39 39 38 37 36 35 35 35 35 35 34 33 34
21 21 21 21 21 21 22 22 23 25 26 27 27 28 28 28 29 29 30 30 30 30 30 30 30 30 30 30 30 29 29 29 29 29 30 31 31 31 31 32 32 32 32 32 33 33 34 36 37 38 39 40 41 42 43 43 42 42 42 41 39 37 36 35 35 35 35 34 34
22 22 21 21 22 22 23 24 25 27 27 28 28 28 28 29 29 30 30 31 31 31 31 31 31 31 31 30 30 30 29 29 29 29 30 30 31 31 31 32 32 32 32 32 32 32 33 34 36 37 39 40 41 43 44 45 45 46 45 44 43 40 38 36 35 35 35 34 33
22 22 22 22 23 23 24 25 27 28 28 28 28 28 29 29 30 30 31 31 32 32 32 32 32 32 31 31 31 30 30 30 30 31 31 31 32 32 32 33 33 34 34 33 33 32 32 33 34 36 38 39 41 43 44 46 47 47 47 46 45 43 40 37 35 34 33 33 33
23 23 23 23 24 24 26 27 28 28 28 28 28 29 29 30 30 31 31 32 32 32 32 32 32 32 32 31 31 32 32 32 32 33 33 33 34 34 34 34 35 35 36 36 36 35 35 34 35 36 38 39 41 43 44 45 47 47 48 47 46 44 41 38 34 33 32 32 32
23 24 24 24 25 26 26 27 28 28 28 28 29 30 30 31 31 32 32 32 32 33 32 32 32 32 32 32 32 33 33 34 34 35 36 36 36 37 37 37 37 37 37 37 37 37 37 37 37 38 39 41 42 44 45 45 46 47 48 48 48 46 43 40 36 33 32 32 32
24 24 25 25 26 27 27 28 28 28 28 29 30 30 31 32 32 32 33 33 33 33 33 33 33 32 32 33 33 34 35 35 36 37 38 38 39 39 39 39 39 39 38 38 38 38 38 38 38 39 40 41 43 44 45 46 47 47 48 49 49 47 45 42 39 36 34 33 32
24 24 25 26 27 28 28 28 28 28 29 30 31 31 32 33 33 33 33 33 33 33 33 33 33 33 33 34 34 35 36 36 37 38 39 39 40 41 41 42 42 41 40 39 38 38 38 38 39 40 41 42 43 45 46 46 47 48 49 50 50 49 48 45 42 39 36 34 33
24 25 25 27 28 29 29 29 29 29 30 31 32 32 33 33 34 34 34 33 33 33 33 33 33 34 34 35 35 36 36 37 37 38 39 40 41 42 43 44 44 44 43 42 40 39 39 39 39 40 41 42 44 45 46 47 48 49 50 51 51 51 50 48 45 41 38 35 34
26 25 26 27 28 29 30 30 30 30 31 32 33 33 34 35 35 35 34 34 34 34 34 34 34 35 35 36 36 36 37 38 38 39 40 41 42 44 45 46 46 46 45 44 42 41 40 40 40 40 41 42 44 45 47 48 49 49 50 52 52 52 52 50 46 41 37 34 33
27 27 27 27 28 29 30 31 31 31 32 32 33 34 35 36 36 36 36 36 36 36 36 35 35 36 36 36 37 37 37 38 39 40 41 42 43 44 45 46 46 46 46 45 44 43 42 41 41 41 41 42 43 44 45 47 48 49 50 51 52 53 53 51 46 40 36 34 34
29 28 28 28 28 29 30 31 31 32 33 33 34 35 36 37 37 37 37 37 37 37 37 37 37 37 37 37 38 38 38 39 40 40 41 42 43 44 45 45 46 46 46 46 45 44 43 43 42 42 42 42 43 43 44 45 46 47 49 50 52 53 53 50 44 39 36 35 35
30 29 29 29 29 29 30 31 32 33 33 34 35 36 37 37 38 38 38 38 38 38 38 39 39 39 39 39 39 39 40 40 40 41 42 42 43 43 44 44 45 46 46 46 46 45 45 44 43 43 43 43 43 43 43 43 45 46 47 48 50 50 50 47 43 39 37 36 36
30 30 30 30 30 30 31 32 32 33 34 35 36 37 38 38 39 39 39 40 40 40 40 40 40 40 40 40 40 40 41 41 41 42 42 42 42 43 43 44 45 46 46 46 47 46 46 46 45 45 44 43 43 43 43 43 44 45 46 46 47 47 47 46 44 41 39 37 37
31 31 31 31 31 31 32 32 33 34 35 36 37 38 39 39 40 40 40 41 41 41 41 41 41 41 41 41 41 41 41 42 41 41 41 41 42 43 43 44 45 46 46 47 47 47 47 48 47 47 45 44 43 42 42 43 44 45 45 46 46 46 46 46 45 43 40 38 39
31 31 31 32 32 33 33 33 34 35 36 37 38 39 40 40 41 41 41 41 42 42 42 42 42 42 42 42 42 42 42 42 41 41 41 42 42 42 43 44 45 46 46 47 48 48 49 49 49 48 47 45 43 42 41 42 43 44 45 46 46 45 46 46 46 44 42 40 40
30 31 32 33 34 34 35 35 36 36 37 38 39 40 41 41 41 42 42 42 42 42 42 42 42 42 42 42 43 42 42 42 42 42 42 42 43 43 44 44 45 46 47 47 48 49 50 50 50 49 47 45 43 42 41 41 42 43 44 45 45 45 46 46 47 45 43 41 41
29 31 33 34 35 36 37 37 38 38 39 40 40 41 42 42 42 42 42 43 42 42 42 42 42 42 42 43 43 43 42 42 42 42 42 43 43 43 44 45 45 46 47 48 49 50 50 50 50 49 47 46 44 42 41 41 41 42 44 45 45 45 45 46 47 46 44 43 43
30 31 33 35 37 38 39 39 40 40 41 41 41 42 42 42 43 43 43 43 42 42 43 43 43 43 43 43 43 43 43 42 42 42 42 42 43 43 44 45 46 46 47 48 49 50 51 51 50 49 48 46 44 43 41 41 41 42 43 44 45 45 45 45 46 46 45 44 45
31 33 34 36 38 39 40 40 41 41 42 42 42 42 42 43 43 43 43 42 42 42 43 43 43 43 43 43 43 43 43 43 42 42 43 43 44 45 45 46 46 47 48 50 51 52 51 51 50 49 47 46 44 43 41 41 41 41 42 43 44 45 45 46 46 46 45 46 47
34 35 36 37 38 39 40 41 41 42 42 42 42 42 42 42 42 42 42 42 42 43 43 44 44 44 44 44 44 44 43 43 43 44 44 45 46 47 48 48 48 49 50 51 51 51 50 50 49 48 47 45 44 42 41 41 41 42 43 43 44 45 46 47 47 46 47 48 48
37 38 38 39 40 40 41 41 42 42 42 42 42 42 42 41 41 41 42 42 43 43 44 44 44 44 44 44 44 43 43 43 44 45 46 47 48 49 50 50 51 51 51 51 51 50 49 48 48 48 46 44 42 41 40 41 42 43 44 44 45 45 46 47 47 48 48 49 49
39 40 40 41 41 41 42 42 42 42 41 41 41 41 41 41 41 41 42 42 43 43 44 44 44 44 44 43 43 43 43 44 44 46 47 49 50 51 52 52 51 51 51 51 50 50 49 48 48 47 46 44 42 40 39 40 41 42 43 44 44 45 46 47 48 49 49 49 48
41 41 41 41 42 42 42 41 41 41 41 41 41 41 40 40 40 41 41 42 42 42 42 42 42 42 42 43 43 43 44 45 45 47 48 49 50 51 52 51 51 51 51 50 50 49 48 48 47 46 45 43 41 39 37 37 38 39 40 42 43 44 46 48 48 49 49 49 47
41 41 41 41 41 41 41 41 40 40 40 40 40 40 40 40 40 40 40 40 40 41 41 41 42 42 42 42 43 43 44 45 46 46 47 48 49 50 50 50 49 49 49 49 49 48 47 47 46 45 44 42 41 41 41 41 40 39 39 41 42 44 46 48 49 49 49 48 46
40 41 41 41 41 40 40 40 40 39 39 39 39 39 39 39 39 39 39 39 40 41 41 42 42 42 42 43 43 44 45 46 46 46 47 47 47 48 49 49 50 50 49 49 48 48 47 47 46 45 44 43 41 42 44 46 44 42 41 42 43 45 46 48 49 49 49 48 46
40 40 40 40 40 39 39 39 39 39 39 39 39 39 39 39 39 40 41 41 42 42 42 43 44 44 43 44 45 45 46 47 47 47 47 47 47 48 49 49 50 50 50 50 49 49 48 48 47 46 45 43 41 42 43 45 44 42 42 43 45 46 47 48 49 49 49 47 46
39 39 39 39 39 39 39 39 39 39 39 39 39 40 40 41 42 43 43 44 44 44 44 44 44 45 46 46 46 47 48 48 48 47 47 47 48 49 49 50 50 50 50 50 49 49 49 48 47 46 45 42 41 40 42 42 42 41 42 44 46 47 48 49 50 50 49 47 46
39 38 38 39 39 39 40 40 40 41 41 41 42 43 43 44 45 46 46 46 46 46 46 46 46 46 48 49 49 49 49 48 48 48 47 47 47 48 49 49 49 50 50 49 49 49 49 48 47 45 43 41 39 39 39 40 40 41 42 44 46 48 49 50 51 50 49 48 47
38 38 39 39 40 41 42 42 42 43 43 44 45 45 46 47 47 47 47 47 47 47 47 47 47 48 48 48 48 48 48 48 48 48 47 47 47 47 48 49 49 49 50 50 50 49 49 47 46 44 42 39 38 37 37 38 39 41 43 45 46 47 48 49 50 51 50 49 48
39 39 40 41 42 43 44 44 45 45 45 46 46 46 46 46 46 46 46 46 45 45 45 45 45 45 46 46 46 46 46 47 46 46 46 46 47 47 48 49 50 50 51 50 50 49 47 46 44 41 39 37 36 35 36 37 39 42 46 48 49 49 49 49 50 50 50 49 48
40 41 41 42 43 44 45 45 46 46 46 46 46 45 44 44 44 44 44 43 42 41 41 41 42 43 43 43 43 44 45 45 45 45 45 46 46 47 49 50 50 51 51 50 49 47 45 43 42 40 37 35 34 35 36 37 40 43 47 50 51 51 51 50 49 49 49 49 48
41 42 43 44 44 45 45 44 44 44 43 43 44 43 43 42 41 41 41 41 40 40 40 41 41 41 42 43 43 44 44 45 45 46 46 46 47 48 49 50 51 50 49 47 46 44 43 42 40 38 37 35 36 37 38 39 42 44 47 50 52 52 51 49 48 47 47 48 48
42 42 42 43 43 43 42 42 41 41 42 42 42 43 42 41 41 40 40 40 40 40 41 41 41 41 42 43 43 43 44 44 45 45 46 46 46 48 49 50 49 47 45 44 43 42 41 40 39 37 37 37 39 39 39 40 42 44 48 51 52 51 50 47 46 46 46 47 48
41 41 41 41 40 40 40 40 40 41 41 42 42 42 42 42 42 41 40 40 40 40 40 41 41 42 42 43 43 43 43 43 44 45 45 45 46 47 48 48 47 45 43 41 41 41 40 39 38 38 38 39 39 39 39 39 42 45 49 50 50 49 48 46 45 45 46 47 48
40 39 38 38 38 39 39 40 40 41 41 42 42 42 42 41 41 41 40 40 40 40 41 42 42 43 43 43 43 43 43 43 43 44 45 45 45 45 46 46 46 44 43 42 41 41 40 39 38 37 37 37 37 38 39 41 44 47 49 49 48 47 46 46 45 46 46 46 47
39 38 37 37 38 39 39 40 40 40 41 42 42 42 42 41 41 41 40 40 40 41 42 43 43 43 43 43 43 44 44 44 43 44 44 45 44 44 44 45 46 45 43 42 42 41 40 39 37 36 35 35 37 39 42 45 47 48 48 47 47 46 45 45 45 45 45 45 46
38 38 38 38 38 39 39 39 40 40 41 41 42 42 42 41 41 41 41 41 41 41 42 43 44 44 44 44 44 45 46 45 44 44 44 44 43 42 43 44 45 45 44 42 41 40 39 37 35 33 33 35 38 42 45 47 48 48 47 47 46 46 45 44 44 44 44 43 44
38 38 38 38 38 38 38 39 40 41 41 41 41 41 41 41 41 42 42 42 42 43 43 44 45 45 44 44 45 46 47 46 45 43 42 42 42 41 42 43 44 44 42 40 38 36 35 33 32 31 33 37 41 45 48 49 49 48 47 46 46 46 45 44 43 43 42 42 42
Wind_Direction
308 309 309 309 309 309 309 309 310 310 311 311 310 309 307 306 305 304 303 303 303 304 304 305 305 306 305 305 304 304 303 303 302 302 302 302 302 302 303 303 303 303 303 302 302 302 302 301 301 300 299 298 296 294 291 289 289 289 289 289 289 288 287 286 284 279 272 268 264
306 307 307 307 307 306 306 307 307 308 308 308 307 307 306 305 304 303 303 302 302 302 303 303 304 304 304 304 303 302 301 301 300 300 300 300 300 300 301 302 302 302 302 302 302 302 302 302 302 302 301 299 298 297 295 292 292 292 292 291 289 287 286 284 283 281 278 273 268
303 303 303 303 303 303 303 304 305 305 305 305 305 304 304 303 303 302 302 301 301 301 301 301 302 302 302 302 302 302 301 300 300 299 299 298 298 299 299 300 301 301 301 301 300 300 300 300 300 300 299 299 299 298 297 296 295 295 295 294 292 289 286 283 282 281 279 277 272
300 300 300 299 300 300 301 302 303 304 304 304 304 303 303 302 302 301 301 301 301 300 300 301 301 301 301 301 301 301 301 300 299 297 296 296 296 296 297 297 298 299 300 300 300 299 298 298 297 297 297 297 298 297 297 297 296 296 296 296 295 292 287 283 280 279 279 279 275
297 297 297 296 297 297 298 300 303 304 305 304 304 303 302 302 301 301 301 300 300 300 300 300 300 300 300 300 300 300 299 298 296 294 293 293 292 293 293 294 294 296 297 298 298 298 298 297 296 295 295 295 296 296 296 296 296 296 296 296 296 294 291 285 281 279 279 279 277
296 295 294 294 295 296 298 301 304 306 306 306 305 303 303 302 302 301 300 300 300 300 300 300 299 299 299 299 299 298 297 296 294 292 290 289 289 290 290 291 292 293 294 295 296 296 296 296 295 294 294 294 294 294 294 295 295 295 295 295 295 295 293 289 283 280 280 280 279
293 293 293 293 294 296 299 304 307 309 308 306 305 304 303 302 302 301 300 300 299 299 299 298 298 298 298 298 298 297 295 294 293 291 289 288 288 288 289 290 291 291 292 293 294 294 294 294 294 293 292 292 292 292 292 293 293 293 293 293 293 294 294 291 286 283 282 282 282
291 290 291 292 294 297 301 305 308 309 308 306 305 304 303 302 301 300 300 299 298 298 298 297 297 297 297 296 296 295 294 293 292 291 290 289 289 289 289 290 290 291 291 292 292 293 293 292 292 291 290 290 290 290 290 291 291 292 292 292 292 293 293 292 289 286 284 285 285
288 288 289 291 294 297 301 305 307 308 307 306 305 304 303 302 301 300 299 298 297 297 296 296 296 295 295 294 293 292 292 291 291 291 291 291 291 291 291 292 292 292 292 292 292 292 292 291 291 290 289 288 288 288 288 289 290 290 290 291 291 291 291 292 290 288 285 286 286
286 287 288 291 294 297 300 303 305 306 306 306 305 304 303 302 301 299 298 297 297 296 295 294 294 293 292 291 290 290 290 290 290 291 291 292 292 292 293 294 294 294 294 294 293 292 291 290 289 288 287 287 286 286 286 286 287 288 289 289 289 290 290 290 290 288 285 284 285
286 286 287 290 293 296 299 301 302 303 304 305 306 306 305 303 301 299 297 297 295 294 293 292 292 291 290 289 288 288 288 289 289 290 290 291 292 293 294 294 295 295 296 295 295 294 292 291 289 288 287 286 285 285 284 284 285 286 287 288 288 288 289 289 290 288 284 282 284
287 287 287 288 291 294 296 298 299 301 302 304 305 306 305 304 301 299 297 296 294 293 292 291 290 289 289 288 288 287 287 287 288 288 289 290 291 292 293 294 295 295 296 296 296 296 295 294 292 290 289 287 286 284 284 283 283 284 285 286 286 287 287 288 289 287 283 282 283
289 288 287 288 289 291 293 295 297 298 300 302 304 305 305 304 302 300 297 295 293 292 291 290 289 288 288 287 287 287 287 287 287 287 288 289 290 291 292 293 294 294 295 296 296 296 296 296 295 295 294 292 289 286 284 283 282 282 283 283 284 285 286 287 287 285 283 282 282
289 288 287 288 288 290 291 293 295 296 298 300 302 303 304 303 302 299 297 294 293 292 290 289 288 287 287 287 287 287 287 287 287 287 287 288 289 289 290 291 292 293 294 295 296 296 296 296 296 296 296 295 293 290 286 283 282 281 281 282 282 283 285 285 285 284 282 281 281
289 289 288 288 288 289 290 291 293 295 297 299 300 302 302 302 300 298 296 294 292 291 290 289 288 287 287 287 287 286 286 286 286 286 287 287 287 288 288 289 290 291 293 294 295 295 295 295 295 296 296 296 294 292 288 285 282 281 281 281 281 282 283 284 284 282 281 280 281
291 290 289 289 290 290 290 292 293 295 296 298 299 300 301 300 299 297 295 293 292 291 290 289 288 288 287 287 286 286 286 286 286 286 286 286 286 286 287 287 289 290 291 292 293 294 294 294 294 295 295 294 293 291 288 285 282 281 281 281 281 282 283 283 283 281 279 278 280
292 292 291 291 291 292 292 293 294 295 296 297 298 298 298 298 297 295 293 292 291 290 289 289 288 288 288 287 287 287 287 286 286 285 285 285 285 285 285 286 287 288 289 290 291 292 292 292 293 293 293 293 292 289 286 283 281 280 280 280 281 281 282 282 280 277 275 276 278
294 294 293 293 293 294 294 295 295 296 296 297 297 297 297 296 295 294 292 291 290 289 289 288 288 288 288 287 287 287 286 286 285 285 285 284 284 284 284 284 285 286 287 288 289 289 290 290 291 292 292 292 290 287 284 280 279 278 278 278 279 279 280 280 277 274 272 273 275
297 296 296 295 295 296 297 297 297 297 297 297 296 296 296 295 294 292 291 290 289 288 288 288 288 288 287 287 287 286 286 285 285 284 284 284 283 283 283 283 283 284 284 285 286 287 287 288 289 289 290 290 289 286 282 278 276 276 276 277 277 277 277 277 274 272 270 272 274
298 298 297 297 297 298 298 298 298 298 297 297 296 296 295 294 293 292 290 289 288 288 288 287 287 287 287 287 286 286 285 284 284 283 282 282 282 281 281 282 282 282 283 283 284 284 285 286 287 288 288 289 288 285 281 277 274 274 274 275 275 275 275 275 273 271 270 271 273
298 298 297 297 297 298 298 298 298 298 298 297 297 296 295 294 293 291 290 289 288 288 287 287 287 287 286 286 286 285 284 283 282 281 281 280 280 280 280 280 280 281 281 281 282 283 284 284 285 286 287 287 287 284 280 275 271 270 271 273 273 274 274 273 272 271 270 270 271
299 298 298 297 297 298 298 298 298 298 298 298 297 296 295 294 292 291 290 289 288 287 287 286 286 286 286 285 285 284 283 282 281 280 280 279 279 279 279 279 279 280 280 281 281 282 283 284 284 285 286 286 286 284 280 275 270 269 269 270 271 272 272 271 270 269 269 268 268
302 301 300 300 299 299 299 299 299 299 298 298 297 296 295 293 292 291 290 289 288 287 287 286 286 285 285 284 283 283 282 281 280 279 279 279 279 279 279 279 279 279 280 281 282 282 282 282 283 283 284 284 284 282 279 275 271 269 268 268 269 269 268 267 267 266 266 266 265
305 304 303 302 302 301 301 300 300 299 298 298 297 296 294 293 292 291 290 289 288 287 287 286 286 285 284 283 282 281 280 280 279 279 279 278 278 279 279 279 280 280 281 282 282 282 282 281 281 282 283 283 282 279 275 272 269 267 266 266 266 266 265 263 262 262 262 261 260
306 305 304 303 302 302 301 300 300 299 298 297 296 295 294 293 292 291 290 289 288 287 286 286 285 284 283 281 281 280 279 279 279 279 278 278 279 279 280 280 281 281 282 283 283 283 282 282 282 282 283 283 281 279 274 270 267 265 265 264 264 263 261 259 257 257 257 256 255
305 304 303 303 302 301 301 300 299 298 297 296 295 295 294 293 292 291 290 289 288 287 286 284 283 282 281 281 280 279 279 279 278 278 279 279 280 281 281 282 281 281 282 282 283 283 283 283 282 282 283 283 282 281 278 275 271 268 266 264 263 261 258 254 252 252 252 251 250
304 304 303 302 302 301 300 299 298 298 297 296 295 294 293 293 291 290 289 288 286 285 284 283 282 282 281 281 281 280 279 279 279 279 279 280 280 281 281 281 281 280 280 281 281 281 281 281 281 281 281 280 279 278 277 275 272 269 266 264 262 259 254 251 248 247 247 246 244
304 304 303 302 302 301 300 299 298 297 296 295 295 294 292 291 290 288 287 286 284 283 283 282 282 282 282 282 281 281 280 280 280 280 280 280 280 280 280 280 279 279 279 279 279 280 280 280 279 279 278 276 273 272 272 271 268 265 262 261 259 255 251 248 245 244 243 241 238
304 304 303 303 301 300 299 298 297 296 295 295 294 292 291 290 288 287 285 284 283 283 283 283 282 283 283 283 282 281 281 281 281 281 280 280 279 279 279 278 278 279 279 279 279 280 280 280 281 280 279 276 271 267 266 267 266 263 260 258 254 251 247 244 242 240 238 236 232
304 304 303 302 301 299 298 297 296 295 294 294 292 291 290 289 288 287 285 285 284 284 284 284 284 283 283 282 282 281 281 281 281 280 280 279 279 278 278 278 278 279 279 280 280 281 281 282 282 281 280 277 271 264 261 261 263 263 260 255 251 247 243 240 238 236 234 230 226
303 303 302 301 299 298 297 296 295 294 293 293 292 291 290 289 288 288 287 287 287 286 285 285 285 284 282 282 281 281 281 280 280 279 279 278 278 278 278 279 279 280 280 280 281 282 282 282 282 281 278 275 271 264 259 256 257 257 255 251 247 243 240 238 236 233 229 226 221
302 301 300 299 298 297 296 295 294 294 293 293 292 292 291 290 290 289 289 288 288 287 287 286 285 284 283 283 282 282 281 281 280 280 279 279 279 279 280 281 281 281 281 282 282 283 282 282 281 280 277 273 269 263 258 254 254 254 252 248 243 238 235 233 231 228 225 222 218
302 301 300 299 298 297 296 295 295 295 294 294 293 293 293 292 292 291 291 290 290 290 289 288 287 286 285 285 284 283 283 282 282 282 282 281 281 282 282 282 282 282 282 283 283 283 283 282 281 279 276 272 267 263 259 257 256 255 251 247 242 236 231 227 224 222 219 217 215
302 301 300 299 298 298 297 297 297 297 296 296 296 295 295 295 295 295 294 294 294 293 292 290 289 288 287 286 285 285 285 284 284 284 284 283 283 283 282 282 282 282 282 283 283 283 282 282 281 279 276 272 269 266 264 262 258 253 247 241 236 231 226 220 217 215 213 211 208
303 303 302 301 301 300 300 300 300 300 300 299 299 299 299 299 298 297 297 297 296 295 293 291 290 289 288 287 286 285 285 284 284 284 284 284 283 283 282 282 282 282 282 282 283 283 283 283 282 280 278 276 275 272 268 263 256 247 239 231 226 221 217 212 208 206 205 203 201
305 305 305 304 304 304 304 304 303 303 302 302 301 301 301 300 299 299 298 298 297 295 293 292 290 289 288 287 286 285 284 284 284 284 284 284 283 283 283 283 283 283 283 283 283 284 284 284 283 283 281 279 276 270 263 256 246 236 227 220 216 212 208 203 200 198 196 196 195
308 308 308 307 307 306 306 305 305 304 303 303 302 301 301 300 300 300 299 299 297 295 293 292 291 290 289 288 288 287 286 286 286 285 285 285 285 285 285 286 285 285 284 285 285 286 286 286 286 284 281 275 267 259 251 241 230 221 214 209 206 203 200 196 193 191 190 190 191
311 311 310 309 307 307 306 306 305 304 303 303 302 301 301 301 300 300 300 299 298 296 295 294 294 293 292 292 292 291 291 290 289 289 288 288 288 288 288 288 287 287 287 288 288 288 288 287 287 283 276 265 254 243 233 224 215 207 201 198 195 193 191 189 188 187 187 188 190
312 312 310 309 307 306 306 305 304 303 303 302 302 302 302 302 302 302 302 301 299 298 297 296 296 296 295 295 294 294 293 293 292 291 291 290 290 290 289 289 289 289 289 289 289 288 288 287 284 278 266 253 239 228 218 209 201 196 191 188 185 184 184 184 184 184 185 187 189
312 311 310 309 307 307 306 305 304 303 303 303 303 303 304 304 304 304 304 303 302 300 298 297 297 297 297 296 295 294 294 294 294 293 292 292 291 291 290 290 290 290 291 290 289 288 286 283 277 267 252 238 225 214 205 197 191 186 182 180 179 178 178 180 181 182 183 184 186
311 310 310 309 308 307 306 305 305 305 305 305 304 305 306 306 306 305 305 304 302 301 299 298 297 297 297 296 295 295 294 295 295 295 294 293 293 293 292 292 292 292 292 290 288 285 280 274 265 251 235 222 211 202 194 188 183 179 176 176 175 175 175 176 178 179 180 181 182
Height
1478 1477 1476 1476 1475 1474 1473 1473 1472 1471 1470 1470 1469 1468 1467 1466 1465 1463 1463 1462 1461 1460 1458 1458 1457 1455 1454 1454 1453 1452 1451 1450 1450 1449 1449 1448 1448 1447 1447 1446 1446 1445 1445 1444 1444 1443 1443 1442 1442 1441 1440 1440 1440 1440 1440 1440 1440 1440 1440 1440 1440 1440 1441 1442 1442 1443 1443 1443 1443
1477 1476 1475 1474 1474 1473 1472 1471 1471 1470 1469 1468 1468 1467 1466 1465 1463 1462 1461 1460 1459 1458 1457 1456 1455 1454 1453 1453 1452 1451 1450 1449 1448 1447 1447 1446 1445 1445 1445 1444 1444 1443 1443 1442 1442 1441 1441 1440 1440 1439 1438 1438 1438 1437 1437 1437 1438 1438 1438 1438 1438 1438 1438 1439 1439 1440 1441 1441 1441
1476 1475 1474 1473 1473 1472 1471 1470 1469 1468 1468 1467 1466 1465 1464 1463 1462 1461 1460 1459 1458 1457 1456 1455 1454 1453 1453 1452 1451 1450 1449 1448 1447 1446 1445 1444 1443 1443 1443 1442 1441 1441 1441 1440 1440 1439 1439 1438 1438 1437 1436 1435 1435 1434 1434 1434 1435 1435 1435 1435 1436 1436 1436 1436 1436 1437 1438 1438 1438
1475 1474 1473 1472 1471 1470 1469 1469 1468 1467 1466 1466 1465 1464 1463 1462 1461 1459 1458 1457 1456 1455 1454 1453 1453 1452 1451 1450 1449 1448 1448 1447 1446 1445 1443 1443 1442 1441 1440 1440 1439 1439 1438 1438 1438 1437 1437 1436 1435 1434 1434 1433 1433 1432 1432 1432 1432 1432 1432 1432 1433 1434 1434 1434 1434 1434 1435 1435 1436
1473 1473 1472 1471 1470 1469 1468 1467 1467 1466 1465 1464 1463 1462 1461 1460 1459 1458 1457 1456 1454 1453 1453 1452 1451 1450 1449 1448 1448 1447 1446 1445 1444 1443 1442 1441 1440 1439 1439 1438 1437 1437 1436 1436 1435 1435 1435 1434 1433 1432 1432 1431 1430 1430 1429 1429 1429 1429 1429 1429 1430 1431 1431 1432 1432 1432 1432 1433 1433
1472 1471 1470 1469 1468 1467 1467 1466 1465 1464 1463 1463 1462 1460 1459 1458 1458 1456 1455 1454 1453 1452 1451 1450 1449 1448 1448 1447 1446 1445 1444 1443 1442 1442 1440 1439 1438 1438 1437 1436 1436 1435 1434 1433 1433 1433 1432 1432 1431 1430 1429 1429 1428 1427 1427 1427 1427 1427 1427 1427 1427 1428 1428 1429 1429 1430 1430 1430 1430
1470 1469 1468 1467 1467 1466 1465 1464 1464 1463 1462 1461 1460 1459 1458 1457 1456 1455 1453 1453 1451 1450 1449 1448 1447 1446 1445 1445 1444 1443 1442 1441 1440 1439 1438 1438 1437 1436 1435 1434 1434 1433 1433 1432 1431 1430 1430 1429 1428 1428 1427 1426 1425 1425 1425 1425 1424 1424 1424 1424 1424 1425 1426 1426 1427 1427 1428 1428 1428
1468 1467 1466 1465 1465 1464 1463 1463 1462 1461 1460 1459 1458 1457 1456 1455 1454 1453 1452 1451 1450 1448 1448 1447 1446 1445 1444 1443 1442 1441 1440 1439 1438 1437 1436 1435 1434 1433 1433 1432 1432 1431 1430 1430 1429 1428 1428 1427 1426 1425 1424 1423 1423 1422 1422 1422 1422 1421 1421 1421 1421 1422 1423 1423 1424 1425 1425 1425 1425
1466 1465 1464 1463 1463 1462 1461 1460 1460 1459 1458 1457 1456 1455 1454 1453 1452 1451 1450 1449 1448 1447 1446 1445 1444 1443 1442 1441 1440 1438 1438 1436 1435 1434 1433 1432 1432 1431 1430 1429 1429 1428 1428 1428 1427 1426 1425 1425 1424 1423 1422 1421 1420 1419 1419 1419 1418 1418 1417 1417 1418 1418 1419 1420 1422 1422 1422 1423 1422
1463 1463 1462 1461 1461 1460 1459 1458 1458 1457 1456 1455 1454 1453 1452 1451 1450 1449 1448 1447 1446 1445 1444 1443 1442 1441 1440 1439 1438 1437 1435 1434 1433 1432 1430 1429 1429 1428 1427 1426 1426 1425 1425 1424 1424 1424 1423 1422 1421 1420 1419 1419 1418 1417 1416 1416 1416 1415 1414 1414 1414 1414 1416 1417 1418 1419 1420 1420 1420
1461 1460 1460 1459 1458 1458 1457 1456 1455 1454 1453 1453 1452 1451 1450 1449 1448 1447 1446 1445 1444 1443 1442 1441 1440 1439 1438 1437 1436 1434 1433 1432 1431 1429 1428 1427 1426 1425 1424 1423 1423 1422 1422 1421 1421 1421 1420 1419 1418 1418 1417 1416 1415 1414 1413 1413 1413 1412 1411 1410 1410 1411 1412 1413 1415 1416 1417 1417 1417
1459 1458 1458 1457 1456 1456 1455 1454 1453 1452 1451 1450 1449 1448 1448 1447 1446 1445 1444 1443 1442 1441 1439 1439 1438 1437 1435 1434 1433 1432 1431 1430 1428 1427 1426 1425 1424 1423 1422 1421 1420 1419 1418 1418 1418 1418 1417 1416 1415 1415 1414 1413 1413 1412 1411 1410 1410 1409 1408 1408 1407 1407 1408 1409 1411 1413 1413 1413 1414
1457 1456 1455 1454 1454 1453 1453 1452 1450 1449 1448 1448 1447 1446 1445 1444 1443 1443 1442 1440 1439 1438 1437 1436 1436 1434 1433 1432 1431 1430 1429 1428 1426 1425 1424 1423 1422 1420 1419 1418 1417 1416 1416 1415 1415 1415 1414 1413 1413 1412 1411 1410 1409 1409 1408 1407 1407 1406 1405 1405 1404 1404 1404 1405 1408 1409 1410 1410 1411
1455 1454 1453 1452 1452 1451 1450 1449 1448 1447 1446 1445 1444 1443 1443 1442 1441 1440 1439 1438 1437 1436 1435 1433 1433 1432 1431 1429 1428 1427 1426 1425 1424 1423 1422 1420 1419 1418 1417 1416 1415 1414 1413 1412 1412 1412 1411 1410 1409 1408 1408 1407 1406 1405 1405 1404 1403 1403 1402 1402 1401 1401 1401 1402 1404 1406 1407 1407 1407
1453 1452 1451 1450 1449 1448 1448 1447 1446 1445 1443 1443 1442 1441 1440 1439 1438 1438 1437 1435 1434 1433 1432 1431 1430 1429 1428 1427 1426 1425 1423 1423 1421 1420 1419 1418 1417 1416 1414 1413 1412 1411 1410 1409 1409 1408 1408 1407 1407 1406 1405 1403 1403 1402 1401 1401 1400 1400 1399 1398 1398 1398 1398 1398 1400 1402 1403 1404 1404
1451 1450 1449 1448 1447 1446 1445 1444 1443 1442 1441 1440 1439 1438 1437 1436 1435 1435 1434 1432 1431 1430 1429 1428 1427 1426 1425 1424 1423 1422 1421 1420 1418 1417 1416 1415 1414 1413 1412 1410 1409 1408 1408 1407 1406 1405 1405 1404 1403 1403 1402 1401 1399 1398 1398 1398 1397 1396 1396 1395 1395 1394 1395 1395 1397 1398 1400 1401 1401
1449 1448 1447 1446 1445 1444 1443 1442 1441 1440 1438 1438 1436 1435 1434 1433 1433 1432 1431 1429 1428 1427 1426 1425 1424 1423 1422 1421 1420 1419 1418 1416 1415 1414 1413 1412 1411 1410 1408 1408 1407 1406 1405 1404 1403 1402 1401 1401 1400 1400 1399 1398 1397 1396 1395 1394 1393 1393 1392 1392 1391 1391 1391 1392 1393 1395 1396 1398 1398
1447 1446 1445 1444 1443 1442 1440 1439 1438 1437 1436 1435 1434 1433 1432 1431 1429 1428 1428 1427 1425 1424 1423 1422 1421 1420 1418 1417 1416 1416 1415 1413 1412 1411 1410 1409 1408 1407 1406 1404 1403 1403 1402 1401 1400 1399 1398 1398 1397 1396 1395 1394 1393 1393 1392 1391 1390 1390 1389 1388 1388 1388 1388 1389 1390 1391 1393 1394 1394
1445 1444 1443 1442 1441 1439 1438 1437 1436 1434 1433 1432 1431 1429 1428 1427 1426 1425 1424 1423 1422 1421 1420 1418 1417 1416 1415 1414 1413 1412 1411 1410 1409 1408 1407 1406 1405 1404 1403 1402 1401 1400 1399 1398 1397 1396 1395 1394 1393 1393 1392 1391 1390 1389 1388 1388 1388 1387 1386 1386 1385 1385 1385 1386 1387 1388 1389 1391 1391
1443 1442 1441 1440 1439 1437 1436 1434 1433 1431 1430 1429 1428 1426 1425 1424 1423 1422 1421 1419 1418 1418 1417 1415 1414 1413 1412 1411 1410 1408 1408 1407 1406 1404 1403 1403 1402 1400 1399 1398 1397 1396 1396 1395 1393 1393 1392 1391 1390 1389 1388 1388 1387 1386 1385 1385 1384 1384 1383 1383 1382 1382 1382 1382 1383 1384 1386 1387 1387
1440 1439 1438 1438 1436 1434 1433 1431 1430 1428 1427 1425 1424 1423 1422 1420 1419 1418 1417 1416 1415 1414 1413 1412 1410 1409 1408 1407 1406 1405 1404 1403 1402 1401 1400 1399 1398 1397 1396 1395 1394 1393 1392 1391 1390 1389 1388 1387 1386 1385 1385 1384 1383 1383 1382 1381 1381 1380 1380 1380 1379 1378 1378 1379 1380 1381 1382 1383 1383
1438 1437 1436 1434 1433 1431 1430 1428 1427 1425 1423 1422 1421 1419 1418 1417 1416 1415 1413 1413 1411 1410 1409 1408 1407 1406 1404 1403 1402 1401 1400 1399 1398 1397 1396 1395 1394 1393 1392 1392 1390 1389 1388 1387 1386 1385 1384 1383 1382 1382 1381 1380 1379 1378 1378 1378 1378 1377 1377 1376 1376 1375 1375 1376 1377 1378 1378 1379 1379
1435 1434 1433 1431 1430 1428 1427 1425 1423 1422 1420 1419 1417 1416 1415 1413 1412 1411 1410 1409 1408 1406 1405 1404 1403 1402 1401 1399 1398 1397 1396 1395 1394 1393 1392 1391 1390 1389 1388 1388 1386 1385 1384 1383 1382 1381 1380 1379 1378 1378 1377 1377 1376 1375 1374 1374 1374 1374 1373 1373 1373 1373 1372 1373 1373 1374 1375 1375 1376
1432 1431 1429 1428 1426 1425 1423 1422 1420 1418 1417 1415 1414 1413 1411 1410 1409 1407 1406 1405 1403 1402 1401 1400 1399 1398 1397 1395 1394 1393 1392 1391 1390 1388 1388 1387 1386 1385 1384 1383 1382 1381 1379 1378 1377 1377 1376 1375 1374 1373 1373 1373 1372 1372 1371 1371 1371 1371 1370 1369 1369 1369 1369 1369 1370 1371 1372 1372 1372
1429 1428 1427 1425 1423 1422 1420 1418 1417 1415 1413 1412 1411 1409 1408 1407 1405 1404 1402 1401 1399 1398 1397 1396 1395 1393 1392 1391 1390 1389 1388 1387 1385 1384 1383 1382 1381 1380 1379 1378 1377 1376 1374 1373 1372 1372 1371 1371 1370 1370 1369 1369 1368 1368 1367 1367 1367 1367 1367 1366 1366 1366 1366 1367 1367 1368 1368 1368 1369
1427 1425 1424 1422 1420 1419 1417 1415 1414 1412 1410 1409 1408 1406 1405 1403 1402 1400 1399 1397 1396 1394 1393 1392 1390 1389 1388 1387 1386 1384 1383 1382 1381 1380 1379 1378 1376 1375 1374 1373 1372 1370 1369 1368 1367 1367 1366 1366 1366 1366 1365 1365 1364 1364 1363 1363 1363 1363 1363 1363 1363 1363 1363 1363 1364 1364 1365 1365 1366
1424 1423 1421 1419 1418 1416 1414 1412 1410 1409 1407 1406 1404 1403 1401 1400 1398 1396 1395 1393 1392 1390 1389 1388 1386 1385 1384 1383 1381 1380 1379 1378 1377 1376 1374 1373 1372 1370 1369 1368 1367 1366 1364 1363 1363 1362 1362 1362 1362 1362 1362 1362 1362 1361 1360 1359 1359 1359 1359 1359 1359 1359 1359 1360 1360 1361 1362 1362 1363
1422 1420 1418 1416 1414 1412 1411 1409 1407 1405 1404 1402 1401 1399 1398 1396 1394 1392 1391 1389 1388 1386 1385 1383 1382 1381 1380 1378 1377 1376 1374 1373 1372 1371 1370 1369 1367 1366 1364 1363 1362 1361 1360 1359 1358 1358 1358 1357 1357 1358 1358 1358 1358 1358 1357 1357 1356 1355 1355 1355 1355 1355 1355 1356 1357 1358 1358 1359 1360
1419 1417 1415 1413 1411 1409 1407 1406 1404 1402 1400 1399 1397 1395 1393 1392 1390 1388 1386 1385 1383 1382 1381 1379 1378 1377 1375 1374 1372 1371 1370 1368 1368 1366 1365 1364 1363 1361 1359 1358 1357 1356 1355 1354 1354 1353 1353 1353 1353 1353 1353 1353 1353 1353 1353 1353 1353 1352 1351 1351 1351 1351 1352 1353 1353 1354 1355 1356 1357
1416 1414 1412 1410 1408 1406 1404 1402 1400 1398 1397 1395 1393 1391 1389 1388 1386 1384 1382 1381 1379 1378 1377 1375 1374 1372 1371 1369 1368 1367 1365 1364 1363 1362 1361 1359 1358 1356 1354 1353 1352 1351 1350 1350 1349 1349 1348 1348 1348 1347 1347 1348 1348 1348 1348 1348 1349 1349 1348 1347 1347 1347 1348 1349 1350 1351 1352 1353 1354
1413 1411 1409 1407 1404 1402 1400 1398 1397 1395 1393 1391 1389 1387 1385 1383 1381 1380 1378 1377 1375 1373 1372 1371 1369 1368 1366 1364 1363 1362 1360 1359 1358 1357 1356 1354 1353 1351 1349 1348 1347 1346 1345 1345 1344 1344 1343 1343 1343 1342 1342 1343 1343 1343 1344 1344 1344 1345 1345 1344 1343 1343 1344 1345 1346 1347 1348 1349 1351
1410 1408 1405 1403 1401 1398 1397 1395 1393 1391 1389 1387 1385 1383 1381 1379 1377 1376 1374 1373 1371 1369 1367 1366 1364 1362 1360 1359 1358 1357 1355 1354 1353 1352 1351 1349 1348 1346 1345 1343 1342 1341 1340 1339 1339 1339 1338 1338 1338 1338 1338 1338 1338 1339 1339 1339 1340 1341 1341 1340 1340 1340 1341 1342 1343 1343 1344 1345 1347
1407 1404 1402 1400 1397 1395 1393 1391 1389 1387 1385 1383 1381 1379 1377 1375 1373 1371 1369 1368 1366 1365 1363 1361 1359 1358 1356 1354 1353 1351 1350 1348 1348 1346 1345 1345 1343 1342 1340 1338 1337 1336 1335 1334 1334 1334 1333 1333 1333 1333 1333 1333 1333 1334 1334 1335 1335 1336 1336 1336 1336 1337 1338 1339 1339 1340 1341 1342 1344
1403 1401 1398 1396 1394 1391 1389 1387 1385 1383 1381 1379 1377 1375 1373 1371 1369 1367 1365 1363 1362 1360 1358 1357 1355 1353 1351 1350 1348 1347 1345 1344 1343 1342 1341 1340 1339 1338 1336 1333 1332 1330 1330 1329 1329 1329 1328 1328 1328 1328 1328 1328 1329 1329 1329 1330 1331 1331 1332 1332 1333 1333 1334 1335 1336 1337 1338 1340 1342
1400 1398 1395 1392 1390 1388 1385 1383 1381 1379 1377 1374 1372 1370 1368 1367 1365 1363 1361 1359 1358 1356 1354 1352 1351 1349 1348 1346 1344 1343 1341 1340 1338 1338 1337 1336 1335 1333 1331 1328 1326 1325 1325 1325 1324 1324 1323 1323 1323 1323 1323 1323 1324 1324 1325 1325 1326 1327 1327 1328 1329 1330 1331 1333 1334 1336 1337 1339 1340
1397 1394 1392 1389 1386 1384 1381 1379 1377 1375 1373 1371 1368 1366 1364 1363 1361 1359 1358 1356 1355 1353 1350 1348 1347 1345 1343 1342 1340 1339 1338 1336 1335 1334 1333 1332 1331 1329 1326 1323 1321 1320 1319 1320 1319 1319 1318 1318 1318 1318 1319 1320 1320 1320 1320 1321 1322 1323 1323 1324 1325 1327 1328 1330 1332 1334 1336 1338 1339
1394 1391 1388 1386 1383 1380 1378 1376 1374 1372 1369 1367 1365 1363 1361 1359 1357 1356 1354 1353 1351 1348 1346 1344 1343 1341 1339 1338 1336 1334 1333 1333 1331 1330 1328 1327 1326 1324 1322 1318 1316 1314 1314 1314 1314 1314 1313 1313 1313 1314 1315 1316 1316 1316 1317 1318 1318 1319 1320 1321 1322 1324 1326 1328 1330 1333 1334 1336 1338
1391 1388 1386 1383 1380 1378 1375 1373 1371 1369 1366 1364 1362 1360 1358 1356 1354 1352 1351 1350 1348 1345 1342 1340 1338 1337 1335 1333 1332 1330 1329 1328 1327 1326 1324 1322 1321 1319 1317 1314 1311 1310 1309 1310 1309 1309 1309 1308 1309 1309 1311 1312 1312 1313 1313 1314 1315 1316 1317 1318 1320 1322 1324 1327 1329 1331 1333 1335 1337
1388 1386 1383 1381 1378 1375 1373 1370 1368 1366 1363 1361 1358 1356 1354 1353 1351 1349 1347 1346 1344 1342 1339 1336 1334 1332 1331 1330 1328 1326 1324 1323 1323 1322 1320 1318 1316 1315 1313 1310 1307 1305 1305 1305 1305 1304 1304 1304 1305 1306 1307 1308 1308 1309 1310 1311 1312 1313 1315 1316 1318 1321 1323 1325 1328 1330 1332 1334 1336
1385 1383 1381 1378 1376 1373 1370 1368 1365 1363 1361 1358 1356 1353 1351 1349 1348 1345 1343 1342 1340 1338 1336 1333 1331 1329 1327 1326 1324 1322 1320 1318 1318 1317 1316 1314 1312 1310 1308 1307 1304 1301 1300 1300 1300 1300 1300 1300 1301 1302 1303 1303 1304 1306 1307 1308 1309 1311 1313 1314 1317 1319 1322 1325 1327 1330 1332 1334 1337
1383 1381 1378 1376 1373 1371 1368 1365 1362 1360 1358 1356 1353 1351 1348 1346 1344 1342 1340 1338 1336 1334 1332 1330 1327 1325 1324 1323 1321 1319 1316 1314 1313 1312 1311 1310 1308 1306 1304 1302 1300 1298 1296 1295 1295 1295 1295 1296 1297 1298 1299 1300 1302 1303 1304 1305 1307 1308 1311 1313 1315 1318 1321 1324 1327 1330 1332 1334 1337